Location: Caguaramas
(10.4056°N, 66.7208°W)
Time: 06:42:35
(UTC+00:00)

Daily predictions for brighter satellites

Satellite Brightness Start Highest point End
(mag) Time Altitude Azimuth Time Altitude Azimuth Time Altitude Azimuth
ARIANE 44P R/B 4.4 22:47:19 10° SW 22:51:01 36° SSE 23:05:34 10° E
Cosmos 292 Rocket 3.8 23:08:22 10° SSW 23:13:08 89° WNW 23:17:53 10° NNE
PAYLOAD B 4.3 23:09:01 10° SSE 23:14:31 89° ENE 23:20:02 10° NNW
YAOGAN 1 3.3 23:10:49 10° SE 23:14:42 33° ENE 23:18:33 10° NNE
GOES 2 Rocket 3.4 23:13:06 10° SW 23:17:10 44° SSE 23:21:55 10° ENE
Delta 2 Rocket 3.5 23:14:24 10° WSW 23:17:52 58° NW 23:21:08 10° NE
Cosmos 2084 3.9 23:18:35 10° S 23:22:14 33° ESE 23:25:46 10° NE
Genesis I 3.4 23:19:35 10° NNW 23:23:27 73° WSW 23:27:12 10° SSE
ARIANE 5 R/B 4.0 23:19:28 10° WSW 23:29:18 20° SSW 23:33:03 10° SSE
Hubble Space Telescope 3.2 23:28:54 10° NNW 23:30:53 13° NNE 23:32:52 10° NE
Cosmos 1782 Rocket 3.6 23:27:33 10° N 23:32:01 84° E 23:36:28 10° S
CZ-2C R/B 1.3 23:34:13 10° NW 23:38:21 72° NE 23:41:16 18° ESE
H-2A R/B 3.6 23:35:37 10° ENE 23:38:39 18° E 23:40:05 16° SE
Feng Yun 1-1 Rocket 4.4 23:34:14 10° SSE 23:39:24 50° ENE 23:44:39 10° N
Cosmos 2266 Rocket 4.0 23:35:45 10° N 23:41:48 88° W 23:47:59 10° S
Cosmos 2369 Rocket 3.9 23:41:10 10° NE 23:43:49 13° ENE 23:45:15 12° E
SJ-6B 4.4 23:46:44 15° E 23:47:04 16° ENE 23:49:21 10° NE
USA 267 3.7 23:41:50 10° ENE 23:47:43 36° SE 23:53:36 10° S
OBJECT-B 1.6 23:47:22 24° E 23:47:47 25° ENE 23:50:12 10° NNE
Sich 1 Rocket 4.3 23:44:15 10° NNE 23:48:24 34° E 23:50:58 19° SE
Delta 202 3.9 23:45:03 10° W 23:50:18 67° NNW 23:56:00 10° ENE
Cosmos 1378 Rocket 3.5 23:46:16 10° S 23:50:41 73° E 23:55:05 10° N
H-2A R/B 4.2 23:55:55 15° ENE 23:55:55 15° ENE 23:57:41 10° NE
